AMAZONAS 5 (42934 NORAD) Tracking and Keplerian Element Data

This shows tracking and keplerian element data for the satellite.

Feedback or suggestion? Click here.




ElementValue
Catalog42934
NameAMAZONAS 5
Epoch Orbit739
Epoch Day261.86622937
Epoch Year2019
RAAN327.8223
Inclination0.0528
Eccentricity0.0002067
Argument of Perigee224.6605
Mean Anonmoly55.8515
Mean Motion1.00272001
Decay Rate-2.86E-06
L11 42934U 17053A 19261.86622937 -.00000286 00000-0 00000-0 0 9997
L22 42934 0.0528 327.8223 0002067 224.6605 55.8515 1.00272001 7397

Live tracking and technical data element details for AMAZONAS 5 (NORAD 42934). AMAZONAS 5 can be tracked NOW for your location showing map with azimuth and elevation plus other details from your city location.

Track the satellite on the map from your city or location and see movement details for azimuth, elevation, latitude, longitude, range, height, and movement on the map or in text.







IsCatalogInMostPopularTable: catalog: 42934, numindb: 321
Update: records affected: 1



GetName: 42934 AMAZONAS 5

Hit Count: updated at: Thu, 19 Sep 2019 16:43:11 GMT